Miscellaneous Local Product
Issued by NWS Hastings, NE

Home | Current Version | Previous Version | Text Only | Print | Product List | Glossary On
Versions: 1 2 3 4 5 6 7 8 9 10 11 12 13 14 15 16 17 18 19 20 21 22 23 24 25 26 27 28 29 30 31 32 33 34 35 36 37 38 39 40 41 42 43 44 45 46 47 48 49 50
000
AXUS43 KGID 052102
MISGRI

GID CWA HOURLY WEATHER ROUNDUP
NATIONAL WEATHER SERVICE HASTINGS NE
300 PM CST THU MAR 05 2015

NOTE: "FAIR" INDICATES FEW OR NO CLOUDS BELOW 12,000 FEET WITH NO
SIGNIFICANT WEATHER AND/OR OBSTRUCTIONS TO VISIBILITY.

...SOUTH CENTRAL NEBRASKA...

CITY           SKY/WX    TMP DP  RH WIND       PRES   REMARKS
GRAND ISLAND   SUNNY     38   8  29 SW16      30.31F WCI  29
HASTINGS       SUNNY     37   5  26 SW13G18   30.30F WCI  29
KEARNEY        SUNNY     39  10  30 SW14      30.28F WCI  31
ORD            SUNNY     38   5  25 SW13G22   30.24F WCI  30
YORK           SUNNY     32   7  34 SW14G21   30.36F WCI  22
AURORA         SUNNY     36   6  29 S12       30.32F WCI  28
LEXINGTON      MOSUNNY   42  11  28 SW14      30.24F
HOLDREGE       SUNNY     40   9  27 SW14G20   30.27F WCI  33
HEBRON         SUNNY     37   2  23 SW9       30.38F WCI  30

...NEBRASKA PANHANDLE...

CITY           SKY/WX    TMP DP  RH WIND       PRES   REMARKS
CHADRON        SUNNY     40  22  48 W22       30.16F WCI  30
ALLIANCE       MOSUNNY   46  14  27 NW18G31   30.14F
SCOTTSBLUFF    MOSUNNY   46  13  26 W15G23    30.18F
SIDNEY         CLOUDY    43  12  28 N16       30.19F

...WESTERN AND NORTH CENTRAL NEBRASKA...

CITY           SKY/WX    TMP DP  RH WIND       PRES   REMARKS
VALENTINE      MOSUNNY   45   6  20 W12       30.14F
AINSWORTH      SUNNY     43   4  20 SW12G17   30.15F
ONEILL         SUNNY     37   4  25 S15G21    30.24F WCI  28
BROKEN BOW     SUNNY     40  10  29 SW14      30.21F WCI  32
IMPERIAL         N/A     46  13  26 W20G28    30.20F
NORTH PLATTE   MOSUNNY   45   9  23 W12       30.19F
MCCOOK         MOSUNNY   48   9  20 SW12G17   30.23F

...EASTERN NEBRASKA...

CITY           SKY/WX    TMP DP  RH WIND       PRES   REMARKS
NORFOLK        SUNNY     34   4  28 S17G26    30.31F WCI  23
SO SIOUX CITY  SUNNY     31   3  30 S15       30.38F WCI  20
TEKAMAH        SUNNY     30   3  31 S10G21    30.42F WCI  21
COLUMBUS       SUNNY     34   5  29 SW14      30.37F WCI  24
ALBION         SUNNY     34   3  26 S16       30.30F WCI  24
OMAHA EPPLEY   MOSUNNY   28   4  35 S10       30.44F WCI  19
OFFUTT AFB     SUNNY     28   3  34 VRB6      30.44F WCI  22
MILLARD        SUNNY     29   4  33 S8        30.44F WCI  21
LINCOLN        SUNNY     33   5  30 S16       30.41F WCI  23
NEBRASKA CITY  SUNNY     30  -4  22 SW7       30.45F WCI  23
BEATRICE       SUNNY     33   5  31 S12       30.42F WCI  24
FALLS CITY     SUNNY     30   1  29 SW5       30.47F WCI  25

...NORTHERN KANSAS...

CITY           SKY/WX    TMP DP  RH WIND       PRES   REMARKS
GOODLAND       SUNNY     45  11  25 SW14      30.24F
HILL CITY      SUNNY     47   0  14 MISG      30.29F
NORTON         CLEAR     48  -4  11 SW10G16   30.26F
PHILLIPSBURG   SUNNY     46   7  19 S8G16     30.31F
SMITH CENTER   SUNNY     39   5  24 S12       30.34F WCI  32
BELOIT         SUNNY     43   7  22 SE6       30.37F
HAYS           SUNNY     45   5  19 SW5       30.33F
RUSSELL        SUNNY     44   2  17 W9G16     30.33F
CONCORDIA      SUNNY     38   7  27 SW9       30.38F WCI  31
SALINA         SUNNY     44   6  21 W8        30.39F
TOPEKA         SUNNY     33   5  30 MISG      30.48F



USA.gov is the U.S. government's official web portal to all federal, state and local government web resources and services.